Probability
0 0 0 0 0 0 0 0 0 0 3 10 10 10 10 13 16 19 16 29 29 61 81 97 100 97 97 97 97 97 94 87 90 90 87 87 84 84 77 71 68 61 55 55 48 45 45 42 45
0 0 0 0 0 0 0 0 0 0 10 10 13 19 19 26 32 19 32 29 26 55 71 94 100 97 97 97 97 97 94 90 90 90 87 87 84 77 71 71 65 58 58 52 42 39 39 42 42
0 0 0 0 0 0 0 0 0 3 6 13 16 16 26 26 26 26 29 32 32 52 61 94 97 100 100 100 97 94 90 90 90 84 84 81 77 71 68 65 58 52 55 52 42 42 42 39 35
0 0 0 0 0 0 0 0 0 3 6 13 19 16 26 26 29 32 29 29 35 52 68 87 100 100 100 100 94 90 87 84 81 84 81 74 68 68 65 65 58 52 48 48 45 45 42 42 42
0 0 0 0 0 0 0 3 3 3 6 13 19 19 23 26 32 29 39 39 32 45 58 81 94 97 94 90 84 84 87 84 81 77 77 71 68 65 61 65 58 55 52 52 48 48 48 42 42
0 0 0 0 0 0 0 0 0 6 13 13 16 16 26 26 39 39 32 35 32 42 58 74 84 77 77 87 87 87 84 84 81 77 71 65 58 65 58 55 52 55 52 48 45 52 48 48 48
0 0 0 0 0 0 0 0 3 13 13 13 16 13 23 23 29 35 35 29 35 42 58 68 68 71 77 81 77 81 81 81 81 71 68 61 55 52 48 45 52 45 45 42 45 45 45 48 45
0 0 0 0 0 0 0 0 3 6 6 6 13 13 23 26 29 32 42 42 45 39 48 65 65 65 65 65 74 71 71 71 65 61 52 48 48 48 52 52 52 45 48 45 45 45 48 48 45
0 0 0 0 0 0 0 3 3 6 10 16 23 19 19 26 26 32 42 52 48 39 42 48 55 55 61 61 61 61 61 55 55 45 45 52 39 32 39 45 45 48 45 45 45 48 48 52 42
0 0 0 0 0 0 0 3 3 6 10 19 23 23 26 29 32 32 35 45 45 42 39 48 48 45 45 55 58 52 48 48 42 39 42 32 26 29 32 35 42 42 35 35 45 45 45 35 29
0 0 0 3 0 0 0 0 6 10 13 19 26 23 29 29 19 29 35 35 45 45 42 48 42 42 35 32 42 45 39 39 29 29 29 26 26 23 26 29 32 32 32 32 32 32 32 26 19
0 0 0 0 0 0 0 3 6 19 23 19 16 16 16 23 23 23 26 32 35 45 45 42 42 29 29 35 39 32 26 23 23 23 23 23 23 23 23 19 23 23 26 23 23 23 23 19 19
0 0 0 0 0 0 3 3 16 23 23 26 23 16 26 19 19 13 10 19 32 42 39 45 39 29 32 19 29 29 26 19 19 19 23 23 19 23 23 19 23 19 13 13 13 13 10 10 13
0 0 0 0 0 0 0 6 13 16 19 16 19 26 26 19 13 19 16 16 29 29 32 45 35 32 26 23 23 19 16 13 19 23 23 26 23 19 16 16 16 10 10 6 10 3 3 3 3
0 0 0 0 0 0 3 6 10 13 6 13 23 23 23 19 19 23 16 16 26 29 26 29 35 32 32 29 23 19 16 13 19 26 29 26 19 16 13 13 13 10 6 6 6 3 3 3 3
0 0 0 0 0 0 0 0 3 3 6 10 19 23 23 23 26 19 26 23 26 26 29 29 32 29 32 35 19 16 13 10 10 19 23 26 16 13 10 13 10 6 6 6 6 6 6 3 3
0 0 0 0 0 0 0 0 3 3 6 10 16 13 23 19 19 13 26 16 19 19 23 19 26 26 26 29 26 23 19 13 13 23 23 10 13 13 16 10 10 6 6 3 3 6 3 0 0
0 0 0 0 0 0 0 0 6 0 3 13 23 19 13 16 16 19 23 16 16 16 16 19 16 19 19 23 29 23 19 16 16 16 19 13 13 13 13 13 10 6 6 3 3 3 3 3 3
0 0 0 0 0 0 0 0 3 3 10 16 16 23 19 13 13 16 23 19 19 16 16 16 16 16 19 23 23 23 16 16 13 13 13 13 13 10 3 6 3 3 3 3 3 3 3 3 3
0 0 0 0 0 3 0 0 3 3 6 10 16 16 16 10 16 19 16 19 19 19 23 16 16 26 23 26 26 16 6 6 6 3 10 13 16 10 13 6 6 3 3 0 3 3 3 0 0
0 0 0 0 0 0 0 0 0 3 6 10 16 16 16 10 13 13 19 19 19 19 23 23 26 23 26 23 23 16 10 10 3 3 6 10 16 6 6 6 3 0 0 0 3 3 0 0 0
0 0 0 0 0 0 0 0 0 0 3 10 13 13 16 10 16 16 19 23 23 23 23 23 23 19 19 23 23 19 13 10 6 6 6 6 13 10 6 10 3 0 0 0 0 3 0 0 0
0 0 0 0 0 0 0 0 0 0 0 3 16 16 10 10 13 10 13 16 19 23 19 19 13 13 19 23 19 13 6 3 3 3 6 6 6 10 6 10 3 3 3 0 0 3 0 0 0
0 0 0 0 0 0 0 0 0 0 0 3 13 13 10 10 6 10 13 16 16 19 19 13 13 13 13 19 16 13 10 6 6 3 3 3 3 3 6 6 6 3 3 3 0 0 0 0 0
0 0 0 0 0 0 0 0 0 0 6 6 10 10 10 6 6 6 10 13 13 16 16 16 13 10 10 13 16 13 3 6 6 6 6 3 3 0 0 3 3 3 3 3 3 0 0 0 0
0 0 0 0 0 0 0 0 0 3 6 6 10 10 10 6 6 6 10 13 13 16 13 10 13 6 3 6 6 10 6 6 10 6 6 6 3 0 3 3 3 3 3 3 6 3 0 0 0
0 0 0 0 0 0 0 0 0 0 3 6 6 10 6 3 6 6 10 10 10 6 6 6 3 3 3 3 6 10 6 6 10 10 10 10 6 3 3 6 6 6 6 6 3 0 0 0 0
0 0 0 0 0 0 0 0 0 0 3 6 3 3 6 3 3 3 3 6 10 6 6 3 6 3 3 3 3 6 6 6 10 6 6 6 3 3 3 3 6 6 6 3 0 0 0 0 0
0 0 0 0 0 0 0 0 0 0 0 0 3 0 3 3 0 0 0 3 0 3 3 6 10 3 3 3 3 3 3 3 6 6 3 3 3 3 3 3 3 3 0 0 0 0 0 0 0
0 0 0 0 0 0 0 0 0 0 0 0 0 0 3 0 0 0 0 0 0 0 3 3 3 3 3 0 0 0 3 10 6 3 3 3 3 3 3 3 3 0 0 0 0 0 0 0 0
Height
5879 5881 5882 5884 5886 5887 5886 5887 5886 5887 5888 5889 5890 5890 5891 5891 5892 5894 5892 5891 5890 5890 5890 5890 5890 5891 5891 5891 5890 5890 5890 5890 5889 5889 5888 5888 5887 5887 5886 5885 5884 5883 5882 5881 5880 5879 5878 5877 5876
5877 5878 5881 5882 5884 5884 5885 5884 5885 5885 5886 5887 5887 5888 5888 5889 5890 5890 5889 5889 5888 5888 5888 5888 5889 5889 5889 5889 5889 5889 5888 5888 5887 5887 5887 5886 5885 5885 5884 5883 5882 5881 5880 5879 5878 5877 5876 5875 5874
5874 5876 5878 5879 5881 5882 5883 5882 5882 5882 5884 5885 5885 5886 5886 5886 5887 5888 5888 5887 5887 5887 5887 5887 5887 5887 5887 5887 5887 5886 5886 5886 5885 5885 5884 5884 5883 5883 5882 5881 5880 5879 5878 5877 5876 5875 5874 5873 5871
5871 5873 5875 5877 5878 5880 5880 5880 5880 5880 5881 5882 5882 5883 5884 5884 5885 5885 5885 5885 5885 5885 5884 5884 5884 5884 5884 5884 5884 5884 5884 5883 5883 5883 5882 5881 5881 5880 5879 5879 5878 5877 5875 5874 5873 5872 5871 5870 5869
5868 5870 5872 5873 5875 5877 5878 5878 5878 5878 5879 5879 5880 5880 5880 5881 5882 5882 5883 5883 5882 5882 5882 5882 5882 5882 5882 5882 5882 5881 5881 5881 5880 5880 5879 5879 5878 5877 5876 5876 5875 5874 5873 5871 5870 5869 5868 5867 5866
5865 5867 5869 5871 5873 5874 5875 5874 5875 5875 5876 5876 5877 5876 5877 5878 5878 5879 5880 5880 5879 5879 5879 5879 5879 5879 5879 5879 5879 5878 5878 5878 5877 5877 5877 5876 5875 5874 5873 5873 5872 5871 5869 5868 5867 5866 5865 5864 5863
5862 5864 5866 5868 5870 5871 5872 5872 5872 5872 5873 5874 5874 5873 5874 5875 5875 5875 5875 5876 5876 5876 5876 5876 5876 5876 5876 5876 5876 5875 5875 5875 5874 5874 5873 5873 5872 5871 5870 5869 5868 5867 5866 5865 5864 5862 5861 5860 5859
5858 5861 5862 5865 5867 5868 5869 5869 5869 5869 5870 5871 5871 5871 5871 5871 5872 5873 5873 5873 5873 5873 5873 5872 5872 5872 5872 5872 5872 5872 5872 5872 5871 5871 5870 5869 5868 5867 5867 5866 5865 5864 5862 5861 5860 5858 5857 5856 5855
5855 5859 5860 5862 5864 5865 5865 5866 5866 5866 5866 5867 5867 5868 5868 5868 5868 5869 5870 5870 5870 5870 5869 5869 5868 5868 5868 5868 5868 5869 5869 5868 5868 5867 5866 5865 5864 5863 5863 5862 5861 5859 5858 5857 5856 5854 5853 5852 5851
5852 5855 5858 5860 5861 5862 5862 5863 5863 5863 5863 5864 5865 5865 5865 5864 5864 5865 5866 5867 5866 5866 5865 5865 5865 5865 5865 5865 5864 5864 5864 5864 5864 5863 5862 5862 5861 5859 5858 5857 5856 5855 5854 5852 5851 5850 5849 5848 5846
5849 5853 5855 5856 5857 5858 5859 5859 5860 5859 5860 5861 5861 5862 5861 5861 5862 5862 5862 5863 5863 5862 5861 5862 5861 5861 5861 5860 5860 5860 5860 5860 5859 5859 5858 5857 5856 5855 5854 5853 5852 5850 5849 5847 5846 5845 5844 5843 5842
5848 5850 5851 5853 5854 5855 5856 5857 5856 5856 5857 5858 5858 5858 5858 5858 5858 5857 5858 5858 5858 5858 5857 5857 5857 5857 5856 5856 5856 5856 5855 5855 5855 5854 5853 5852 5851 5850 5849 5848 5847 5845 5844 5842 5842 5840 5839 5838 5836
5845 5848 5849 5850 5851 5852 5853 5853 5853 5854 5854 5853 5853 5854 5854 5854 5854 5853 5853 5854 5854 5853 5853 5853 5852 5852 5852 5852 5852 5852 5851 5850 5850 5849 5848 5847 5846 5845 5844 5843 5842 5840 5839 5837 5836 5835 5834 5832 5831
5843 5844 5846 5847 5848 5849 5849 5850 5850 5850 5850 5850 5850 5851 5851 5851 5850 5850 5849 5849 5849 5848 5848 5848 5848 5848 5848 5848 5847 5847 5846 5845 5844 5844 5843 5842 5841 5840 5838 5837 5836 5835 5833 5832 5831 5829 5828 5827 5826
5840 5842 5843 5844 5845 5844 5845 5847 5847 5846 5845 5846 5846 5847 5847 5847 5847 5846 5845 5845 5845 5845 5844 5844 5844 5843 5843 5843 5842 5841 5840 5840 5839 5838 5838 5837 5835 5834 5833 5831 5830 5828 5827 5826 5824 5823 5822 5821 5820
5837 5839 5840 5841 5842 5842 5843 5843 5844 5844 5843 5842 5842 5843 5843 5844 5843 5841 5841 5841 5840 5839 5839 5839 5839 5838 5838 5838 5837 5836 5835 5835 5834 5833 5832 5831 5830 5828 5827 5825 5823 5822 5820 5819 5818 5816 5815 5814 5813
5836 5836 5838 5839 5839 5839 5839 5839 5840 5840 5839 5839 5839 5839 5839 5840 5839 5838 5837 5837 5836 5835 5835 5835 5834 5833 5833 5833 5832 5831 5830 5828 5828 5827 5825 5825 5824 5823 5821 5820 5817 5816 5814 5812 5811 5810 5809 5808 5807
5835 5835 5836 5836 5836 5836 5836 5836 5836 5835 5835 5836 5836 5836 5836 5835 5835 5834 5833 5832 5832 5831 5831 5830 5829 5828 5828 5827 5826 5826 5825 5824 5824 5823 5821 5820 5819 5817 5816 5814 5812 5810 5808 5806 5804 5803 5802 5801 5800
5833 5833 5834 5834 5833 5833 5833 5832 5832 5832 5832 5832 5832 5832 5832 5832 5831 5830 5829 5828 5827 5827 5826 5824 5823 5823 5822 5822 5822 5822 5821 5820 5819 5818 5817 5815 5814 5812 5810 5808 5807 5805 5802 5800 5798 5797 5796 5795 5794
5831 5832 5832 5832 5831 5830 5830 5829 5828 5828 5828 5828 5828 5828 5828 5827 5827 5826 5824 5823 5822 5822 5821 5819 5818 5818 5818 5818 5817 5817 5816 5814 5813 5812 5811 5810 5809 5807 5805 5803 5801 5799 5796 5794 5792 5791 5790 5789 5788
5829 5829 5829 5829 5829 5828 5827 5826 5825 5826 5825 5825 5824 5824 5824 5823 5822 5821 5821 5820 5819 5818 5817 5816 5815 5815 5814 5814 5813 5812 5811 5809 5808 5807 5806 5805 5803 5801 5799 5797 5795 5793 5790 5788 5786 5785 5784 5782 5781
5828 5828 5827 5827 5827 5826 5825 5824 5823 5822 5822 5821 5821 5821 5820 5819 5819 5818 5818 5817 5816 5815 5814 5813 5812 5811 5811 5810 5808 5807 5806 5805 5804 5803 5801 5799 5798 5796 5794 5791 5790 5787 5785 5782 5781 5779 5778 5776 5775
5827 5827 5826 5825 5824 5824 5822 5822 5822 5820 5819 5818 5818 5817 5817 5816 5815 5814 5813 5813 5812 5811 5810 5809 5808 5808 5807 5806 5804 5803 5801 5800 5799 5797 5796 5794 5792 5790 5788 5786 5784 5781 5779 5776 5774 5773 5771 5770 5768
5826 5826 5825 5824 5822 5822 5821 5821 5820 5818 5817 5816 5815 5814 5813 5813 5812 5811 5810 5809 5808 5807 5806 5805 5805 5804 5803 5801 5800 5798 5797 5795 5794 5792 5790 5789 5787 5785 5783 5780 5778 5776 5773 5771 5769 5767 5765 5764 5762
5825 5825 5824 5822 5821 5820 5819 5818 5818 5816 5814 5813 5812 5811 5810 5810 5809 5808 5807 5806 5805 5803 5803 5802 5801 5800 5799 5797 5795 5793 5792 5790 5788 5787 5785 5783 5782 5779 5777 5774 5772 5770 5768 5766 5763 5762 5760 5757 5755
5823 5822 5822 5821 5819 5818 5817 5816 5816 5814 5813 5811 5810 5808 5808 5807 5806 5805 5804 5803 5801 5800 5799 5798 5797 5795 5794 5793 5791 5789 5787 5785 5783 5781 5780 5778 5776 5774 5771 5769 5766 5764 5762 5760 5758 5755 5753 5751 5748
5822 5821 5821 5820 5818 5817 5816 5815 5814 5812 5811 5810 5808 5807 5806 5805 5804 5803 5801 5800 5798 5796 5795 5795 5793 5792 5790 5789 5787 5785 5783 5780 5778 5776 5774 5772 5770 5768 5766 5763 5761 5759 5757 5754 5752 5750 5747 5744 5741
5821 5820 5819 5818 5816 5815 5815 5813 5813 5811 5810 5809 5807 5806 5805 5803 5802 5801 5799 5798 5796 5794 5792 5791 5790 5788 5786 5785 5782 5780 5778 5775 5773 5771 5769 5767 5765 5762 5760 5758 5756 5754 5751 5749 5746 5743 5740 5737 5734
5821 5820 5818 5817 5815 5814 5813 5814 5811 5809 5808 5807 5805 5804 5802 5801 5800 5799 5797 5796 5794 5792 5790 5789 5787 5785 5783 5781 5779 5776 5773 5771 5768 5766 5764 5762 5759 5757 5755 5753 5751 5749 5746 5743 5740 5737 5734 5730 5727
5820 5819 5818 5816 5814 5813 5811 5813 5809 5808 5806 5804 5803 5802 5800 5800 5798 5797 5795 5794 5792 5790 5788 5786 5784 5782 5780 5777 5775 5772 5769 5766 5764 5761 5760 5758 5755 5753 5751 5748 5746 5744 5741 5738 5735 5731 5728 5724 5720
Wind_Speed
14 13 12 11 10 9 8 8 8 9 10 10 10 11 12 12 12 10 9 9 8 8 8 7 7 7 7 8 8 9 9 9 9 10 10 10 10 11 11 12 12 12 13 13 13 13 13 14 14
15 14 14 13 11 10 8 9 10 10 10 10 12 13 14 14 13 12 11 10 9 9 8 8 8 9 9 9 10 10 10 11 11 11 11 11 11 12 12 13 13 14 14 14 14 14 14 14 15
16 15 15 14 13 11 10 10 11 11 11 11 13 14 14 15 14 13 12 12 11 11 10 9 10 11 11 11 11 11 11 11 12 12 12 12 13 13 13 13 14 15 15 15 16 16 15 15 15
17 16 16 15 12 11 11 11 12 12 13 14 14 15 15 15 15 15 13 13 13 13 12 12 12 12 12 13 13 12 12 12 12 13 13 13 13 13 14 14 15 16 16 16 17 17 16 15 15
17 17 16 14 12 11 12 13 13 14 14 14 15 16 17 17 16 15 15 14 14 13 14 13 13 12 13 14 14 13 13 12 13 13 13 13 14 14 15 16 16 17 17 17 17 17 16 16 16
17 17 16 14 13 13 14 15 15 15 14 15 16 17 18 17 17 15 15 15 14 14 15 14 14 14 14 14 14 15 14 14 14 14 14 14 15 15 16 16 17 17 17 17 17 17 17 17 16
17 17 15 14 13 14 14 15 15 15 15 16 18 19 18 17 16 15 15 16 16 16 16 16 16 15 14 15 15 16 15 15 15 15 15 15 15 16 16 17 17 17 18 18 18 18 18 18 17
18 17 16 15 15 15 14 14 14 16 16 17 18 20 21 20 17 16 15 15 16 17 18 18 16 15 16 16 16 16 15 15 15 16 16 16 17 17 17 18 17 18 18 18 18 19 19 18 18
17 17 17 16 16 16 15 15 15 17 17 17 18 19 19 19 18 17 15 15 16 15 16 17 16 16 16 16 16 16 16 16 16 16 16 17 17 17 18 18 18 18 18 19 19 19 19 19 18
18 17 16 16 16 16 17 17 17 18 17 17 18 18 18 18 18 17 16 16 17 17 16 16 15 16 16 17 16 17 17 17 17 17 17 17 18 17 18 18 18 19 19 20 20 20 20 20 19
16 16 15 16 15 17 16 16 17 18 18 18 18 18 19 18 17 17 17 16 17 17 17 16 15 15 16 17 16 17 18 18 18 18 18 19 18 18 18 19 20 20 20 20 21 21 21 21 21
14 15 16 17 16 16 15 15 16 18 18 18 18 17 17 18 18 18 17 16 16 17 18 18 18 18 18 18 18 18 19 19 19 19 19 19 19 19 19 20 20 21 21 21 21 21 22 22 21
11 12 14 16 16 15 15 15 15 17 17 18 17 17 17 18 18 18 17 17 17 18 17 18 19 19 18 18 19 20 20 20 20 20 20 19 20 20 21 21 21 21 21 22 23 23 22 22 21
10 11 13 14 14 14 14 14 15 16 17 16 16 15 16 17 17 18 18 18 18 18 18 18 18 17 18 18 19 20 21 21 21 21 21 20 21 21 21 21 22 22 22 23 24 23 23 23 23
9 9 10 12 12 13 14 13 14 15 15 15 15 15 15 16 16 17 17 18 19 18 18 18 18 19 19 19 19 20 21 22 21 21 21 21 21 22 22 22 23 23 23 24 24 24 24 24 24
8 8 8 10 10 11 14 14 15 15 16 14 14 14 14 15 16 16 17 19 19 18 18 17 18 19 19 19 20 20 20 20 21 22 22 21 22 22 23 24 24 24 25 25 25 25 25 24 24
8 9 8 9 10 13 15 15 16 17 18 16 15 14 13 14 15 16 17 18 19 20 18 17 18 18 18 18 19 19 20 20 20 22 22 22 23 23 23 24 24 25 24 25 25 25 25 25 25
7 8 9 9 10 13 15 16 17 17 19 18 16 15 14 14 15 16 17 18 18 19 19 20 19 18 18 18 18 19 19 19 20 22 21 21 22 22 23 23 23 24 24 24 25 25 25 25 26
7 8 9 10 10 12 14 16 16 16 17 16 14 15 15 15 15 16 17 18 18 18 19 19 18 18 17 17 18 18 19 20 21 21 22 22 22 22 23 22 21 22 22 24 24 24 24 24 24
7 7 7 8 9 11 12 14 15 15 14 14 14 15 15 16 16 17 17 16 17 17 18 17 15 16 17 16 17 18 19 20 21 21 21 22 21 21 22 22 21 22 23 23 24 23 23 24 24
5 6 6 6 7 9 10 11 13 13 13 13 13 13 13 14 14 14 14 14 15 16 16 15 15 15 15 16 17 18 19 20 20 21 21 21 21 20 21 20 21 22 22 22 21 21 21 22 23
4 5 5 5 6 6 7 9 9 10 11 11 12 12 12 13 13 13 13 14 15 15 14 14 14 13 14 15 16 17 18 19 19 20 20 21 20 20 21 21 21 21 21 21 22 22 21 21 22
3 4 4 5 5 5 6 7 8 9 9 10 11 12 12 13 14 13 12 14 14 14 14 14 12 12 13 15 16 17 17 18 18 18 18 19 19 20 20 21 21 21 22 22 21 21 21 21 22
3 4 4 4 5 5 6 7 7 7 9 10 11 10 11 13 14 12 12 13 13 13 14 14 14 13 13 15 16 17 17 18 17 17 17 18 19 20 20 21 21 22 21 21 20 20 21 21 22
4 4 4 5 5 5 5 7 8 9 10 10 9 8 9 12 13 13 12 12 13 13 14 15 14 14 15 16 16 17 17 17 16 17 18 18 19 20 20 20 20 20 21 21 20 20 21 23 24
4 4 6 6 5 4 6 8 9 10 10 10 9 9 10 11 12 12 12 12 12 14 14 14 14 15 15 16 16 16 15 16 16 17 18 19 19 19 19 19 19 19 20 20 19 20 21 23 24
5 5 6 6 6 6 6 7 9 10 9 9 9 9 9 9 10 10 11 10 11 12 13 13 13 14 14 15 15 15 15 16 16 17 17 17 17 17 18 18 18 18 20 21 21 20 22 23 24
5 4 4 5 7 8 8 8 10 9 9 9 9 9 9 9 9 9 10 10 11 11 11 11 12 12 13 14 15 16 16 16 16 16 16 16 17 17 16 17 17 18 20 21 21 21 22 23 25
4 4 5 6 8 8 8 8 9 9 9 9 10 10 9 9 9 9 9 11 12 11 11 11 12 13 14 15 16 16 16 16 16 15 15 16 16 16 16 17 17 19 20 21 22 22 23 24 26
5 5 6 8 9 8 8 9 9 10 10 10 11 11 10 10 10 10 11 11 12 12 12 12 13 13 14 14 15 15 15 15 14 14 14 14 15 16 17 18 18 19 20 21 22 23 24 26 27
Wind_Direction
220 216 214 214 214 211 212 215 219 230 237 238 246 254 263 269 273 280 282 285 288 283 273 269 274 278 283 282 283 283 280 278 278 281 282 280 280 281 285 287 289 289 289 289 289 288 288 289 289
222 216 215 213 215 216 217 225 231 241 247 247 254 260 264 269 274 279 279 281 278 280 276 271 270 272 275 279 280 284 281 276 275 277 278 279 279 281 284 285 285 286 288 288 288 287 287 288 289
222 218 218 217 217 218 218 226 236 243 250 252 257 260 265 269 270 274 277 273 274 279 278 271 272 271 273 276 279 280 278 278 278 277 279 280 280 281 283 284 284 285 287 288 289 287 286 287 287
223 221 222 221 219 213 217 226 235 244 253 258 260 260 262 266 268 270 273 275 275 276 275 272 271 273 273 274 278 279 277 278 279 279 280 281 280 280 282 284 285 286 287 288 289 288 286 286 286
224 224 223 219 213 210 214 226 238 246 254 261 264 265 265 266 268 267 270 274 274 271 271 271 270 273 274 274 276 277 279 278 278 280 282 281 281 283 283 283 285 286 286 288 289 287 286 286 285
223 224 221 215 207 209 213 226 237 246 255 262 269 272 269 270 270 269 268 269 272 272 272 271 272 273 275 275 275 275 277 277 277 277 279 281 282 283 283 284 286 286 286 287 287 286 285 285 284
219 220 217 212 205 207 215 229 244 250 258 264 270 277 276 273 271 270 272 272 271 272 273 271 269 268 271 274 273 272 273 276 278 276 278 281 282 283 284 284 285 285 286 285 284 285 286 285 284
217 217 213 209 205 206 217 233 245 255 264 266 269 275 278 277 272 271 274 272 271 273 273 270 267 269 270 274 272 272 273 274 276 277 278 281 282 282 284 283 283 284 285 284 284 283 286 287 284
217 214 212 212 210 212 219 233 244 255 265 267 270 274 278 276 274 274 273 274 274 277 277 275 271 270 269 271 269 270 273 271 273 276 277 279 281 283 284 284 284 284 283 283 284 283 284 285 284
216 213 211 213 215 218 224 234 243 257 264 267 270 275 274 274 280 282 279 276 275 275 280 279 276 271 268 269 269 270 272 273 275 276 276 277 280 281 282 283 285 285 283 282 283 283 283 283 283
216 216 216 214 213 218 224 237 246 257 263 267 271 273 275 281 282 280 281 277 276 276 280 281 280 278 275 272 273 275 275 274 275 275 275 277 279 279 280 283 285 285 283 282 282 282 282 283 281
217 218 220 221 221 223 227 236 245 254 261 269 271 271 277 281 282 278 277 277 275 274 275 277 279 274 276 275 274 276 276 278 279 279 279 279 281 280 280 282 283 284 283 280 280 282 282 283 282
217 225 225 226 226 226 230 236 246 253 259 266 268 270 274 277 277 277 276 279 277 276 273 274 277 275 275 273 272 275 278 279 280 278 280 282 282 280 281 282 283 282 281 281 281 282 283 284 282
217 223 221 222 225 229 232 239 251 256 258 266 272 275 278 278 278 279 279 279 277 274 269 271 274 273 275 271 271 277 276 277 276 277 277 280 280 280 281 282 281 281 280 281 281 281 282 282 282
218 222 221 218 224 237 242 245 253 259 261 267 273 276 280 277 273 274 279 280 279 276 272 273 272 273 273 273 273 277 274 275 275 277 278 280 280 280 281 281 281 281 280 280 280 280 280 281 281
220 226 223 223 234 246 254 253 257 261 264 271 275 280 282 277 278 275 279 283 282 281 275 271 271 270 272 273 274 277 276 275 278 281 281 282 283 282 282 282 282 283 282 280 279 280 281 280 280
225 231 227 228 239 251 259 262 260 264 268 274 275 279 285 279 279 278 281 284 285 285 283 275 272 271 272 274 276 280 281 278 282 285 283 282 282 282 284 286 284 284 284 283 281 281 281 280 279
235 237 238 238 247 256 262 264 266 268 269 271 271 275 279 282 279 281 285 286 285 283 284 280 275 276 275 277 279 281 282 283 284 285 285 284 285 283 284 287 286 285 285 285 283 282 281 280 279
238 242 246 249 257 259 262 264 268 270 273 270 269 273 274 278 281 284 285 284 284 282 283 285 281 276 273 276 278 279 281 284 285 286 283 284 285 286 287 286 287 286 288 285 282 282 281 282 281
245 252 252 252 259 267 271 270 265 270 273 273 273 276 277 281 283 284 285 288 288 282 284 286 284 276 274 275 279 281 282 284 285 288 286 284 286 288 289 285 286 288 289 289 285 283 281 282 282
252 262 266 266 268 279 284 276 269 269 278 282 280 278 280 286 284 289 287 293 291 287 288 288 288 281 279 279 282 285 285 287 287 287 288 287 288 290 291 288 290 290 291 292 289 287 285 284 283
271 280 283 290 283 284 288 288 287 280 285 286 285 283 286 287 286 287 288 293 293 289 288 291 291 288 286 288 289 289 288 288 288 287 287 288 289 290 290 289 293 292 290 290 289 287 286 287 287
294 308 296 289 296 301 289 290 299 294 292 288 286 281 284 291 292 291 291 294 294 289 290 292 292 289 290 290 291 292 291 289 289 287 287 288 289 292 292 292 291 293 293 294 291 289 288 289 290
309 316 303 297 295 297 298 301 307 303 300 297 297 296 295 297 296 295 296 297 295 291 295 297 299 297 295 296 293 293 292 290 286 286 286 286 288 291 291 292 291 292 294 295 294 294 292 292 292
305 296 292 290 287 294 306 309 312 308 308 305 301 301 301 304 301 300 300 298 296 294 298 301 300 300 298 300 299 297 296 292 287 286 287 288 290 291 291 291 294 295 296 299 297 294 295 295 294
319 311 312 315 313 302 318 317 322 319 318 310 297 304 312 309 310 304 295 295 296 293 295 301 302 301 301 301 302 303 303 300 293 291 288 289 290 292 293 293 295 297 299 301 301 299 298 296 295
320 309 311 315 317 319 318 314 312 317 320 315 306 308 316 315 315 309 303 301 306 305 299 300 303 303 302 301 304 306 307 305 297 295 295 295 295 294 296 300 299 299 302 303 302 301 300 300 299
331 308 297 307 310 310 313 311 315 318 316 319 321 327 329 326 326 316 313 311 314 313 308 306 306 305 305 305 305 306 306 304 303 296 297 297 298 301 302 302 303 302 302 304 305 302 301 302 303
310 315 312 313 312 313 316 318 322 324 318 316 322 322 327 331 325 321 320 321 322 321 318 313 313 312 309 309 309 309 308 305 303 304 302 300 302 307 308 307 307 308 308 307 306 304 304 307 307
307 317 323 317 315 313 312 320 324 318 319 321 324 325 321 322 321 321 324 323 321 322 320 318 319 318 315 314 313 313 313 310 310 313 312 310 309 310 312 310 311 312 311 309 309 309 310 310 310